Satellite-Ground Cal/Val Region Overpasses Predictions

Prediction of Satellite NPP Overpassing Cal/Val Region: PacNW

Region Location: (Latitude: 10.00, Longitude: 139.50) to (Latitude: 22.70, Longitude: 165.60).

Table of predicted overpasses for the next 14.0 days since TLE Epoch: 5/14/2022
Interval Starting Time Starting Location Ending Time Ending Location
1 05/14/2022 03:29:52 ( 10.06, 147.29) 05/14/2022 03:33:27 ( 22.68, 144.29)
2 05/14/2022 16:01:44 ( 22.69, 144.54) 05/14/2022 16:05:20 ( 10.01, 141.52)
3 05/15/2022 03:10:49 ( 10.01, 152.06) 05/15/2022 03:14:25 ( 22.70, 149.04)
4 05/15/2022 15:42:42 ( 22.67, 149.29) 05/15/2022 15:46:17 ( 10.05, 146.29)
5 05/16/2022 02:51:46 ( 10.03, 156.82) 05/16/2022 02:55:21 ( 22.65, 153.81)
6 05/16/2022 15:23:39 ( 22.65, 154.05) 05/16/2022 15:27:14 ( 10.03, 151.05)
7 05/17/2022 02:32:44 ( 10.05, 161.58) 05/17/2022 02:36:19 ( 22.67, 158.57)
8 05/17/2022 15:04:36 ( 22.69, 158.82) 05/17/2022 15:08:12 ( 10.01, 155.81)
9 05/18/2022 02:14:36 ( 13.30, 165.59) 05/18/2022 02:17:16 ( 22.69, 163.33)
10 05/18/2022 03:55:10 ( 10.02, 140.97) 05/18/2022 03:56:57 ( 16.30, 139.51)
11 05/18/2022 14:45:33 ( 22.68, 163.58) 05/18/2022 14:49:08 ( 10.06, 160.58)
12 05/19/2022 03:36:08 ( 10.04, 145.73) 05/19/2022 03:39:43 ( 22.66, 142.72)
13 05/19/2022 14:29:47 ( 11.15, 165.59) 05/19/2022 14:30:06 ( 10.04, 165.34)
14 05/19/2022 16:08:01 ( 22.65, 142.96) 05/19/2022 16:11:36 ( 10.03, 139.96)
15 05/20/2022 03:17:05 ( 10.06, 150.48) 05/20/2022 03:20:40 ( 22.68, 147.48)
16 05/20/2022 15:48:57 ( 22.69, 147.73) 05/20/2022 15:52:33 ( 10.01, 144.72)
17 05/21/2022 02:58:02 ( 10.02, 155.26) 05/21/2022 03:01:38 ( 22.70, 152.24)
18 05/21/2022 15:29:55 ( 22.67, 152.49) 05/21/2022 15:33:30 ( 10.05, 149.49)
19 05/22/2022 02:39:00 ( 10.04, 160.01) 05/22/2022 02:42:35 ( 22.66, 157.01)
20 05/22/2022 15:10:52 ( 22.64, 157.25) 05/22/2022 15:14:27 ( 10.02, 154.24)
21 05/23/2022 02:19:56 ( 10.00, 164.78) 05/23/2022 02:23:32 ( 22.68, 161.77)
22 05/23/2022 14:51:49 ( 22.68, 162.02) 05/23/2022 14:55:25 ( 10.00, 159.00)
23 05/24/2022 03:42:24 ( 10.04, 144.16) 05/24/2022 03:45:59 ( 22.66, 141.16)
24 05/24/2022 14:34:08 ( 17.85, 165.60) 05/24/2022 14:36:21 ( 10.04, 163.77)
25 05/24/2022 16:14:16 ( 22.65, 141.40) 05/24/2022 16:16:29 ( 14.85, 139.51)
26 05/25/2022 03:23:20 ( 10.00, 148.93) 05/25/2022 03:26:56 ( 22.68, 145.92)
27 05/25/2022 15:55:13 ( 22.68, 146.17) 05/25/2022 15:58:49 ( 10.01, 143.15)
28 05/26/2022 03:04:18 ( 10.03, 153.69) 05/26/2022 03:07:53 ( 22.65, 150.69)
29 05/26/2022 15:36:10 ( 22.66, 150.92) 05/26/2022 15:39:45 ( 10.04, 147.92)
30 05/27/2022 02:45:15 ( 10.05, 158.45) 05/27/2022 02:48:50 ( 22.67, 155.44)
